GSAT-10 (GAGAN/PRN 128)

Last updated on Jan. 25, 2020, 4:44 a.m. UTC

1 38779U 12051B   20024.83704365 -.00000173  00000-0  00000+0 0  9998
2 38779   0.0361 117.9844 0000543 198.9982 190.9528  1.00272226 26877
UTC
Height (km)
Latitude
Longitude
Inclination
Orbital Period
UTC large
Height (km)
Speed (km/s)
/
Latitude / Longitude
Inclination (degrees)
Orbital Period (minutes)
Azimuth
Elevation
Range (km)
Doppler Factor
iOS Compass Heading
iOS Angle

Next 30 passes for location: Hong Kong

Rise time Rise Azimuth (degrees) Set time Set Azimuth (degrees) Duration Max altitude (degrees)

No matching passes for this satellites